Voltar ao catálogo

COSMOS 643

AtivoMilitarLEO
NORAD 7267·PAYLOAD·🇷🇺 Russia

Lançado Apr 23, 1974 de Plesetsk Cosmodrome

Loading…

Próximas Passagens (próximas 24 horas)

TLE

AtualizadoSource: Space-Track

Época: Sep 14, 2026, 13:15 UTC

1 07267U 74024C   26257.55251227  .00000001  00000-0  98348-4 0  9997
2 07267  74.0223 355.2512 0083070 267.3771 102.3941 12.61593796412901

Acompanhe COSMOS 643 em tempo real com AllMySat

Download on the App Store